| time (UTC) | temp C | wind direction | speed KPH | gust KPH | rain 1hr cm | rain 24hr cm | rain mn cm | humidity % | barometer mb |
| 20260506070306 | 20 | 0 | 0.0 | 0.0 | 0.00 | 0.00 | 0.00 | 89 | 1012.9 |
| 20260506062306 | 20 | 0 | 0.0 | 4.8 | 0.00 | 0.00 | 0.00 | 89 | 1013.2 |
| 20260506061806 | 20 | 0 | 0.0 | 4.8 | 0.00 | 0.00 | 0.00 | 89 | 1013.2 |
| 20260506061306 | 20 | 162 | 1.6 | 4.8 | 0.00 | 0.00 | 0.00 | 89 | 1013.2 |
| 20260506060805 | 20 | 2 | 0.0 | 4.8 | 0.00 | 0.00 | 0.00 | 89 | 1013.2 |
| 20260506051306 | 20 | 161 | 1.6 | 4.8 | 0.00 | 0.00 | 0.00 | 89 | 1013.9 |
| 20260506050805 | 20 | 161 | 1.6 | 4.8 | 0.00 | 0.00 | 0.00 | 89 | 1013.9 |
| 20260506050306 | 20 | 161 | 3.2 | 4.8 | 0.00 | 0.00 | 0.00 | 89 | 1013.9 |
| 20260506044806 | 20 | 35 | 0.0 | 4.8 | 0.00 | 0.00 | 0.00 | 88 | 1014.2 |
| 20260506044306 | 20 | 7 | 1.6 | 4.8 | 0.00 | 0.00 | 0.00 | 89 | 1014.2 |
| 20260506043806 | 20 | 161 | 1.6 | 4.8 | 0.00 | 0.00 | 0.00 | 86 | 1014.2 |
| 20260506043306 | 20 | 161 | 1.6 | 4.8 | 0.00 | 0.00 | 0.00 | 86 | 1014.2 |
| 20260506042805 | 20 | 0 | 0.0 | 4.8 | 0.00 | 0.00 | 0.00 | 86 | 1014.2 |
| 20260506042306 | 20 | 161 | 1.6 | 4.8 | 0.00 | 0.00 | 0.00 | 86 | 1014.2 |
| 20260506041806 | 20 | 0 | 0.0 | 3.2 | 0.00 | 0.00 | 0.00 | 86 | 1014.2 |
| 20260506041306 | 20 | 0 | 0.0 | 3.2 | 0.00 | 0.00 | 0.00 | 86 | 1014.2 |
| 20260506040313 | 20 | 0 | 0.0 | 1.6 | 0.00 | 0.00 | 0.00 | 86 | 1014.2 |
| 20260506035805 | 20 | 0 | 0.0 | 1.6 | 0.00 | 0.00 | 0.00 | 83 | 1014.6 |
| 20260506035306 | 20 | 0 | 0.0 | 1.6 | 0.00 | 0.00 | 0.00 | 83 | 1014.6 |
| 20260506034806 | 20 | 161 | 1.6 | 1.6 | 0.00 | 0.00 | 0.00 | 83 | 1014.6 |
| 20260506033806 | 20 | 0 | 0.0 | 1.6 | 0.00 | 0.00 | 0.00 | 83 | 1014.6 |
| 20260506033305 | 20 | 0 | 0.0 | 1.6 | 0.00 | 0.00 | 0.00 | 85 | 1014.6 |
| 20260506032805 | 20 | 0 | 0.0 | 1.6 | 0.00 | 0.00 | 0.00 | 86 | 1014.6 |
| 20260506032306 | 20 | 0 | 0.0 | 1.6 | 0.00 | 0.00 | 0.00 | 83 | 1014.6 |
| 20260506030806 | 20 | 0 | 0.0 | 1.6 | 0.00 | 0.00 | 0.00 | 83 | 1014.6 |
| 20260506030305 | 20 | 0 | 0.0 | 1.6 | 0.00 | 0.00 | 0.00 | 83 | 1014.6 |
| 20260506025805 | 21 | 0 | 0.0 | 1.6 | 0.00 | 0.00 | 0.00 | 81 | 1013.9 |
| 20260506025306 | 21 | 0 | 0.0 | 1.6 | 0.00 | 0.00 | 0.00 | 81 | 1013.9 |
| 20260506024806 | 21 | 0 | 0.0 | 1.6 | 0.00 | 0.00 | 0.00 | 81 | 1013.9 |
| 20260506024306 | 21 | 0 | 0.0 | 1.6 | 0.00 | 0.00 | 0.00 | 81 | 1013.9 |
| 20260506023805 | 21 | 0 | 0.0 | 1.6 | 0.00 | 0.00 | 0.00 | 81 | 1013.9 |
| 20260506023306 | 21 | 0 | 0.0 | 1.6 | 0.00 | 0.00 | 0.00 | 81 | 1013.9 |
| 20260506022805 | 21 | 0 | 0.0 | 3.2 | 0.00 | 0.00 | 0.00 | 81 | 1013.9 |
| 20260506022306 | 21 | 0 | 0.0 | 3.2 | 0.00 | 0.00 | 0.00 | 81 | 1013.9 |
| 20260506021806 | 21 | 0 | 0.0 | 4.8 | 0.00 | 0.00 | 0.00 | 82 | 1014.1 |
| 20260506021306 | 21 | 0 | 0.0 | 4.8 | 0.00 | 0.00 | 0.00 | 83 | 1014.1 |
| 20260506020805 | 21 | 0 | 1.6 | 4.8 | 0.00 | 0.00 | 0.00 | 81 | 1013.9 |
| 20260506020305 | 21 | 161 | 1.6 | 3.2 | 0.00 | 0.00 | 0.00 | 81 | 1013.9 |
| 20260506015805 | 22 | 0 | 0.0 | 9.7 | 0.00 | 0.00 | 0.00 | 84 | 1013.9 |
| 20260506015306 | 22 | 161 | 3.2 | 9.7 | 0.00 | 0.00 | 0.00 | 73 | 1013.9 |
| 20260506014805 | 22 | 161 | 1.6 | 9.7 | 0.00 | 0.00 | 0.00 | 73 | 1013.9 |
| 20260506013805 | 22 | 169 | 3.2 | 8.0 | 0.00 | 0.00 | 0.00 | 73 | 1013.9 |
| 20260506013305 | 22 | 169 | 1.6 | 4.8 | 0.00 | 0.00 | 0.00 | 73 | 1013.9 |
| 20260506012805 | 22 | 169 | 1.6 | 4.8 | 0.00 | 0.00 | 0.00 | 73 | 1013.9 |
| 20260506012308 | 22 | 0 | 0.0 | 8.0 | 0.00 | 0.00 | 0.00 | 73 | 1013.9 |
| 20260506010805 | 22 | 166 | 1.6 | 8.0 | 0.00 | 0.00 | 0.00 | 75 | 1014.0 |
| 20260506010305 | 22 | 170 | 3.2 | 9.7 | 0.00 | 0.00 | 0.00 | 77 | 1014.1 |
| 20260506005805 | 22 | 170 | 3.2 | 9.7 | 0.00 | 0.00 | 0.00 | 70 | 1014.2 |
| 20260506005306 | 22 | 170 | 3.2 | 9.7 | 0.00 | 0.00 | 0.00 | 81 | 1013.9 |
| 20260506004806 | 22 | 169 | 3.2 | 11.3 | 0.00 | 0.00 | 0.00 | 70 | 1013.9 |
| 20260506004305 | 22 | 175 | 3.2 | 11.3 | 0.00 | 0.00 | 0.00 | 70 | 1013.9 |
| 20260506003805 | 22 | 171 | 3.2 | 11.3 | 0.00 | 0.00 | 0.00 | 70 | 1013.9 |
| 20260506002306 | 22 | 161 | 3.2 | 12.9 | 0.00 | 0.00 | 0.00 | 70 | 1013.9 |
| 20260506001805 | 22 | 157 | 9.7 | 12.9 | 0.00 | 0.00 | 0.00 | 70 | 1013.9 |
| 20260506001305 | 22 | 141 | 3.2 | 16.1 | 0.00 | 0.00 | 0.00 | 70 | 1013.9 |
| 20260506000805 | 22 | 166 | 9.7 | 16.1 | 0.00 | 0.00 | 0.00 | 70 | 1013.9 |
| 20260505235805 | 24 | 161 | 11.3 | 14.5 | 0.00 | 0.00 | 0.00 | 62 | 1013.5 |
| 20260505235305 | 24 | 171 | 8.0 | 14.5 | 0.00 | 0.00 | 0.00 | 62 | 1013.6 |
| 20260505234806 | 23 | 173 | 4.8 | 11.3 | 0.00 | 0.00 | 0.00 | 62 | 1013.7 |
| 20260505234306 | 23 | 170 | 3.2 | 11.3 | 0.00 | 0.00 | 0.00 | 69 | 1013.8 |
| 20260505233805 | 24 | 159 | 3.2 | 11.3 | 0.00 | 0.00 | 0.00 | 62 | 1013.6 |
| 20260505233305 | 24 | 167 | 4.8 | 9.7 | 0.00 | 0.00 | 0.00 | 62 | 1013.6 |
| 20260505232805 | 24 | 167 | 4.8 | 16.1 | 0.00 | 0.00 | 0.00 | 75 | 1013.6 |
| 20260505232306 | 24 | 161 | 3.2 | 16.1 | 0.00 | 0.00 | 0.00 | 62 | 1013.5 |
| 20260505231805 | 24 | 148 | 3.2 | 16.1 | 0.00 | 0.00 | 0.00 | 62 | 1013.5 |
| 20260505231305 | 24 | 180 | 1.6 | 19.3 | 0.00 | 0.00 | 0.00 | 62 | 1013.5 |
| 20260505230805 | 24 | 167 | 4.8 | 19.3 | 0.00 | 0.00 | 0.00 | 62 | 1013.5 |
| 20260505230305 | 24 | 142 | 3.2 | 19.3 | 0.00 | 0.00 | 0.00 | 62 | 1013.5 |
| 20260505225805 | 25 | 169 | 11.3 | 19.3 | 0.00 | 0.00 | 0.00 | 55 | 1013.5 |
| 20260505225306 | 25 | 165 | 3.2 | 14.5 | 0.00 | 0.00 | 0.00 | 55 | 1013.5 |
| 20260505224805 | 25 | 195 | 4.8 | 14.5 | 0.00 | 0.00 | 0.00 | 55 | 1013.5 |
| 20260505224305 | 25 | 172 | 3.2 | 14.5 | 0.00 | 0.00 | 0.00 | 55 | 1013.5 |
| 20260505223805 | 25 | 234 | 1.6 | 14.5 | 0.00 | 0.00 | 0.00 | 55 | 1013.6 |
| 20260505223305 | 25 | 157 | 3.2 | 11.3 | 0.00 | 0.00 | 0.00 | 55 | 1013.6 |
| 20260505222805 | 25 | 166 | 1.6 | 19.3 | 0.00 | 0.00 | 0.00 | 55 | 1013.6 |
| 20260505222306 | 25 | 257 | 4.8 | 19.3 | 0.00 | 0.00 | 0.00 | 58 | 1013.7 |
| 20260505221805 | 25 | 198 | 8.0 | 19.3 | 0.00 | 0.00 | 0.00 | 55 | 1013.5 |
| 20260505221305 | 25 | 162 | 8.0 | 19.3 | 0.00 | 0.00 | 0.00 | 55 | 1013.7 |
| 20260505220805 | 25 | 177 | 11.3 | 14.5 | 0.00 | 0.00 | 0.00 | 63 | 1013.5 |
| 20260505220305 | 25 | 217 | 8.0 | 20.9 | 0.00 | 0.00 | 0.00 | 55 | 1013.5 |
| 20260505215805 | 26 | 147 | 3.2 | 20.9 | 0.00 | 0.00 | 0.00 | 54 | 1013.2 |
| 20260505215305 | 26 | 153 | 6.4 | 22.5 | 0.00 | 0.00 | 0.00 | 54 | 1013.2 |
| 20260505214305 | 26 | 173 | 8.0 | 19.3 | 0.00 | 0.00 | 0.00 | 54 | 1013.2 |
| 20260505213805 | 26 | 159 | 3.2 | 19.3 | 0.00 | 0.00 | 0.00 | 54 | 1013.2 |
| 20260505213304 | 26 | 131 | 4.8 | 19.3 | 0.00 | 0.00 | 0.00 | 54 | 1013.2 |
| 20260505212804 | 26 | 158 | 4.8 | 20.9 | 0.00 | 0.00 | 0.00 | 54 | 1013.2 |
| 20260505212306 | 26 | 153 | 4.8 | 20.9 | 0.00 | 0.00 | 0.00 | 54 | 1013.2 |
| 20260505210805 | 26 | 206 | 4.8 | 19.3 | 0.00 | 0.00 | 0.00 | 54 | 1013.3 |
| 20260505210305 | 25 | 174 | 11.3 | 19.3 | 0.00 | 0.00 | 0.00 | 54 | 1013.6 |
| 20260505205804 | 26 | 157 | 9.7 | 19.3 | 0.00 | 0.00 | 0.00 | 52 | 1014.2 |
| 20260505205305 | 26 | 202 | 4.8 | 19.3 | 0.00 | 0.00 | 0.00 | 67 | 1014.2 |
| 20260505204805 | 26 | 142 | 4.8 | 19.3 | 0.00 | 0.00 | 0.00 | 52 | 1014.2 |
| 20260505203804 | 26 | 109 | 4.8 | 19.3 | 0.00 | 0.00 | 0.00 | 52 | 1014.2 |
| 20260505203305 | 26 | 198 | 1.6 | 20.9 | 0.00 | 0.00 | 0.00 | 52 | 1014.2 |
| 20260505202805 | 26 | 164 | 3.2 | 20.9 | 0.00 | 0.00 | 0.00 | 52 | 1014.2 |
| 20260505202307 | 26 | 232 | 3.2 | 20.9 | 0.00 | 0.00 | 0.00 | 52 | 1014.2 |
| 20260505201805 | 26 | 180 | 8.0 | 19.3 | 0.00 | 0.00 | 0.00 | 52 | 1014.2 |
| 20260505201305 | 26 | 180 | 1.6 | 19.3 | 0.00 | 0.00 | 0.00 | 52 | 1014.2 |
| 20260505200805 | 26 | 168 | 4.8 | 19.3 | 0.00 | 0.00 | 0.00 | 52 | 1014.2 |
| 20260505200305 | 26 | 163 | 9.7 | 19.3 | 0.00 | 0.00 | 0.00 | 52 | 1014.2 |
| 20260505195805 | 26 | 159 | 14.5 | 19.3 | 0.00 | 0.00 | 0.00 | 51 | 1014.6 |
| 20260505195305 | 26 | 150 | 11.3 | 19.3 | 0.00 | 0.00 | 0.00 | 50 | 1014.6 |
| 20260505194805 | 26 | 115 | 9.7 | 16.1 | 0.00 | 0.00 | 0.00 | 65 | 1014.6 |
| 20260505194305 | 26 | 148 | 6.4 | 14.5 | 0.00 | 0.00 | 0.00 | 50 | 1014.6 |
| 20260505193805 | 26 | 213 | 3.2 | 16.1 | 0.00 | 0.00 | 0.00 | 50 | 1014.6 |
| 20260505193305 | 26 | 158 | 4.8 | 16.1 | 0.00 | 0.00 | 0.00 | 50 | 1014.6 |
| 20260505192805 | 26 | 140 | 8.0 | 16.1 | 0.00 | 0.00 | 0.00 | 53 | 1014.6 |
| 20260505192306 | 26 | 238 | 3.2 | 16.1 | 0.00 | 0.00 | 0.00 | 50 | 1014.6 |
| 20260505191804 | 26 | 246 | 4.8 | 16.1 | 0.00 | 0.00 | 0.00 | 50 | 1014.6 |
| 20260505190805 | 26 | 126 | 1.6 | 14.5 | 0.00 | 0.00 | 0.00 | 50 | 1014.6 |
| 20260505190305 | 26 | 220 | 9.7 | 19.3 | 0.00 | 0.00 | 0.00 | 50 | 1014.6 |
| 20260505185804 | 26 | 192 | 3.2 | 19.3 | 0.00 | 0.00 | 0.00 | 48 | 1014.9 |
| 20260505184805 | 26 | 160 | 14.5 | 19.3 | 0.00 | 0.00 | 0.00 | 51 | 1014.9 |
| 20260505184304 | 26 | 205 | 9.7 | 19.3 | 0.00 | 0.00 | 0.00 | 48 | 1014.9 |
| 20260505183805 | 26 | 213 | 4.8 | 19.3 | 0.00 | 0.00 | 0.00 | 48 | 1014.9 |
| 20260505183305 | 26 | 185 | 4.8 | 19.3 | 0.00 | 0.00 | 0.00 | 62 | 1014.9 |
| 20260505182805 | 26 | 236 | 4.8 | 16.1 | 0.00 | 0.00 | 0.00 | 48 | 1014.9 |
| 20260505182306 | 26 | 162 | 3.2 | 12.9 | 0.00 | 0.00 | 0.00 | 48 | 1014.9 |
| 20260505181805 | 26 | 163 | 4.8 | 12.9 | 0.00 | 0.00 | 0.00 | 48 | 1014.9 |
| 20260505181305 | 26 | 147 | 9.7 | 14.5 | 0.00 | 0.00 | 0.00 | 48 | 1014.9 |
| 20260505180305 | 26 | 237 | 4.8 | 19.3 | 0.00 | 0.00 | 0.00 | 48 | 1014.9 |
| 20260505175805 | 26 | 206 | 3.2 | 19.3 | 0.00 | 0.00 | 0.00 | 54 | 1015.2 |
| 20260505175305 | 26 | 116 | 12.9 | 14.5 | 0.00 | 0.00 | 0.00 | 54 | 1015.2 |
| 20260505174305 | 26 | 148 | 9.7 | 22.5 | 0.00 | 0.00 | 0.00 | 60 | 1015.2 |
| 20260505173804 | 26 | 146 | 9.7 | 22.5 | 0.00 | 0.00 | 0.00 | 55 | 1015.2 |
| 20260505173304 | 26 | 221 | 4.8 | 22.5 | 0.00 | 0.00 | 0.00 | 54 | 1015.2 |
| 20260505172805 | 26 | 190 | 4.8 | 19.3 | 0.00 | 0.00 | 0.00 | 65 | 1015.2 |
| 20260505172306 | 26 | 182 | 1.6 | 19.3 | 0.00 | 0.00 | 0.00 | 54 | 1015.2 |
| 20260505171805 | 26 | 188 | 3.2 | 19.3 | 0.00 | 0.00 | 0.00 | 57 | 1015.2 |
| 20260505171304 | 26 | 222 | 8.0 | 16.1 | 0.00 | 0.00 | 0.00 | 54 | 1015.2 |
| 20260505170805 | 26 | 157 | 8.0 | 16.1 | 0.00 | 0.00 | 0.00 | 54 | 1015.2 |
| 20260505170304 | 26 | 161 | 4.8 | 16.1 | 0.00 | 0.00 | 0.00 | 54 | 1015.2 |
| 20260505165804 | 25 | 195 | 4.8 | 16.1 | 0.00 | 0.00 | 0.00 | 53 | 1015.2 |
| 20260505165306 | 25 | 184 | 3.2 | 16.1 | 0.00 | 0.00 | 0.00 | 53 | 1015.2 |
| 20260505164804 | 25 | 223 | 1.6 | 16.1 | 0.00 | 0.00 | 0.00 | 53 | 1015.2 |
| 20260505164304 | 25 | 117 | 3.2 | 16.1 | 0.00 | 0.00 | 0.00 | 53 | 1015.2 |
| 20260505163804 | 25 | 130 | 4.8 | 16.1 | 0.00 | 0.00 | 0.00 | 54 | 1015.2 |
| 20260505163305 | 25 | 150 | 4.8 | 19.3 | 0.00 | 0.00 | 0.00 | 53 | 1015.2 |
| 20260505162804 | 25 | 224 | 4.8 | 19.3 | 0.00 | 0.00 | 0.00 | 65 | 1015.2 |
| 20260505162306 | 25 | 181 | 4.8 | 19.3 | 0.00 | 0.00 | 0.00 | 53 | 1015.2 |
| 20260505161805 | 25 | 217 | 3.2 | 19.3 | 0.00 | 0.00 | 0.00 | 53 | 1015.2 |
| 20260505160805 | 25 | 212 | 4.8 | 19.3 | 0.00 | 0.00 | 0.00 | 56 | 1015.2 |
| 20260505160304 | 25 | 216 | 4.8 | 19.3 | 0.00 | 0.00 | 0.00 | 53 | 1015.2 |
| 20260505153304 | 23 | 208 | 3.2 | 19.3 | 0.00 | 0.00 | 0.00 | 57 | 1014.6 |
| 20260505152805 | 23 | 164 | 8.0 | 19.3 | 0.00 | 0.00 | 0.00 | 58 | 1014.7 |
| 20260505152305 | 24 | 157 | 3.2 | 19.3 | 0.00 | 0.00 | 0.00 | 62 | 1014.9 |
| 20260505151805 | 24 | 4 | 4.8 | 19.3 | 0.00 | 0.00 | 0.00 | 64 | 1015.2 |
| 20260505151305 | 23 | 173 | 8.0 | 19.3 | 0.00 | 0.00 | 0.00 | 57 | 1014.6 |
| 20260505150805 | 23 | 146 | 8.0 | 19.3 | 0.00 | 0.00 | 0.00 | 57 | 1014.6 |
| 20260505150304 | 23 | 167 | 12.9 | 19.3 | 0.00 | 0.00 | 0.00 | 57 | 1014.6 |
| 20260505130304 | 18 | 0 | 0.0 | 4.8 | 0.00 | 0.00 | 0.00 | 78 | 1014.9 |
| 20260505124304 | 16 | 0 | 0.0 | 3.2 | 0.00 | 0.00 | 0.00 | 86 | 1014.6 |
| 20260505123804 | 15 | 0 | 0.0 | 4.8 | 0.00 | 0.00 | 0.00 | 86 | 1014.6 |
| 20260505123305 | 14 | 0 | 0.0 | 4.8 | 0.00 | 0.00 | 0.00 | 86 | 1014.6 |
| 20260505122805 | 14 | 261 | 1.6 | 4.8 | 0.00 | 0.00 | 0.00 | 86 | 1014.6 |
| 20260505122305 | 14 | 0 | 0.0 | 4.8 | 0.00 | 0.00 | 0.00 | 86 | 1014.6 |
| 20260505120804 | 14 | 0 | 0.0 | 4.8 | 0.00 | 0.00 | 0.00 | 86 | 1014.6 |
| 20260505120305 | 14 | 155 | 4.8 | 4.8 | 0.00 | 0.00 | 0.00 | 86 | 1014.6 |
| 20260505115803 | 13 | 158 | 1.6 | 3.2 | 0.00 | 0.00 | 0.00 | 90 | 1013.9 |
| 20260505115305 | 13 | 0 | 0.0 | 1.6 | 0.00 | 0.00 | 0.00 | 90 | 1013.9 |
| 20260505114804 | 13 | 0 | 0.0 | 0.0 | 0.00 | 0.00 | 0.00 | 90 | 1013.9 |
| 20260505114304 | 13 | 0 | 0.0 | 0.0 | 0.00 | 0.00 | 0.00 | 91 | 1014.1 |
| 20260505113805 | 12 | 0 | 0.0 | 0.0 | 0.00 | 0.00 | 0.00 | 91 | 1014.3 |
| 20260505113305 | 13 | 0 | 0.0 | 0.0 | 0.00 | 0.00 | 0.00 | 90 | 1013.9 |
| 20260505112305 | 13 | 0 | 0.0 | 0.0 | 0.00 | 0.00 | 0.00 | 90 | 1013.9 |
| 20260505111804 | 13 | 0 | 0.0 | 0.0 | 0.00 | 0.00 | 0.00 | 90 | 1013.9 |
| 20260505111304 | 13 | 0 | 0.0 | 0.0 | 0.00 | 0.00 | 0.00 | 90 | 1013.9 |
| 20260505110803 | 13 | 0 | 0.0 | 0.0 | 0.00 | 0.00 | 0.00 | 90 | 1013.9 |
| 20260505101804 | 12 | 0 | 0.0 | 0.0 | 0.00 | 0.00 | 0.00 | 89 | 1013.9 |
| 20260505101304 | 12 | 0 | 0.0 | 0.0 | 0.00 | 0.00 | 0.00 | 89 | 1013.9 |
| 20260505100803 | 12 | 0 | 0.0 | 0.0 | 0.00 | 0.00 | 0.00 | 92 | 1013.9 |
| 20260505100303 | 12 | 0 | 0.0 | 0.0 | 0.00 | 0.00 | 0.00 | 92 | 1014.0 |
| 20260505095803 | 12 | 0 | 0.0 | 0.0 | 0.00 | 0.00 | 0.00 | 91 | 1014.1 |
| 20260505095305 | 12 | 0 | 0.0 | 0.0 | 0.00 | 0.00 | 0.00 | 92 | 1013.9 |
| 20260505094306 | 11 | 0 | 0.0 | 0.0 | 0.00 | 0.00 | 0.00 | 92 | 1013.9 |
| 20260505093806 | 12 | 0 | 0.0 | 0.0 | 0.00 | 0.00 | 0.00 | 92 | 1013.9 |
| 20260505092305 | 12 | 0 | 0.0 | 0.0 | 0.00 | 0.00 | 0.00 | 92 | 1013.9 |
| 20260505091806 | 12 | 0 | 0.0 | 0.0 | 0.00 | 0.00 | 0.00 | 92 | 1013.9 |
| 20260505091305 | 12 | 0 | 0.0 | 0.0 | 0.00 | 0.00 | 0.00 | 92 | 1013.9 |
| 20260505090805 | 12 | 0 | 0.0 | 0.0 | 0.00 | 0.00 | 0.00 | 92 | 1013.9 |
| 20260505090305 | 12 | 0 | 0.0 | 0.0 | 0.00 | 0.00 | 0.00 | 92 | 1013.9 |
| 20260505085806 | 12 | 0 | 0.0 | 0.0 | 0.00 | 0.00 | 0.00 | 89 | 1013.9 |
| 20260505085306 | 12 | 0 | 0.0 | 0.0 | 0.00 | 0.00 | 0.00 | 89 | 1013.9 |
| 20260505084806 | 12 | 0 | 0.0 | 0.0 | 0.00 | 0.00 | 0.00 | 89 | 1013.9 |
| 20260505084306 | 12 | 0 | 0.0 | 0.0 | 0.00 | 0.00 | 0.00 | 89 | 1013.9 |
| 20260505083806 | 12 | 0 | 0.0 | 0.0 | 0.00 | 0.00 | 0.00 | 89 | 1013.9 |
| 20260505083306 | 12 | 0 | 0.0 | 0.0 | 0.00 | 0.00 | 0.00 | 89 | 1013.9 |
| 20260505082306 | 12 | 0 | 0.0 | 0.0 | 0.00 | 0.00 | 0.00 | 89 | 1013.9 |
| 20260505081806 | 12 | 0 | 0.0 | 0.0 | 0.00 | 0.00 | 0.00 | 89 | 1013.9 |
| 20260505081306 | 12 | 0 | 0.0 | 0.0 | 0.00 | 0.00 | 0.00 | 89 | 1013.9 |
| 20260505080805 | 12 | 0 | 0.0 | 0.0 | 0.00 | 0.00 | 0.00 | 89 | 1013.9 |
| 20260505080306 | 12 | 0 | 0.0 | 0.0 | 0.00 | 0.00 | 0.00 | 89 | 1013.9 |
| 20260505075805 | 13 | 0 | 0.0 | 0.0 | 0.00 | 0.00 | 0.00 | 83 | 1014.2 |
| 20260505075306 | 13 | 0 | 0.0 | 0.0 | 0.00 | 0.00 | 0.00 | 83 | 1014.2 |
| 20260505074805 | 13 | 0 | 0.0 | 0.0 | 0.00 | 0.00 | 0.00 | 83 | 1014.2 |
| 20260505074306 | 13 | 0 | 0.0 | 0.0 | 0.00 | 0.00 | 0.00 | 83 | 1014.2 |
| 20260505073806 | 13 | 0 | 0.0 | 0.0 | 0.00 | 0.00 | 0.00 | 83 | 1014.2 |
| 20260505073306 | 13 | 0 | 0.0 | 0.0 | 0.00 | 0.00 | 0.00 | 83 | 1014.2 |
| 20260505072806 | 12 | 0 | 0.0 | 0.0 | 0.00 | 0.00 | 0.00 | 85 | 1014.2 |
| 20260505072306 | 12 | 0 | 0.0 | 0.0 | 0.00 | 0.00 | 0.00 | 86 | 1014.2 |
| 20260505071806 | 13 | 0 | 0.0 | 0.0 | 0.00 | 0.00 | 0.00 | 83 | 1014.2 |